[[{"header":{"parameterUnit":"m.s-1","parameterCategory":1,"la1":30.2991,"la2":30.254,"lo1":-89.0895,"lo2":-89.0444,"dy":0.0017,"dx":0.0017,"nx":28,"ny":28,"refTime":"2023-08-27T21:00:00:Z","depth":0,"parameterNumber":2,"parameterNumberName":"U-component_of_WINDS"},"data":[0,0,0,0,0,0,0,0,0,0,0,0,0,0,0,0,0,0,0,0,0,0,0,0,0,0,0,0,0,0,0,0,0,0,0,0,0,0,0,0,0,0,0,0,0,0,0,0,0,0,0,0,0,0,0,0,0,0,2.226,2.226,0,2.2338,2.2339,2.234,2.2281,2.2279,2.2276,2.2274,2.2353,2.2357,2.2362,0,0,0,0,0,0,0,0,0,0,0,0,0,2.2058,2.2063,2.226,2.2261,2.2262,2.2338,2.2339,2.234,2.2282,2.2279,2.2276,2.2273,2.2351,2.2357,2.2362,0,0,0,0,0,0,0,0,0,0,0,0,0,2.2142,2.2064,2.2259,2.2242,2.2241,2.2337,2.2339,2.234,2.2282,2.2279,2.2275,2.2271,2.235,2.2356,2.2363,2.2481,0,0,2.2383,2.2386,0,0,0,0,0,0,0,0,2.2138,2.215,2.2243,2.2243,2.2242,2.2296,2.2297,2.2387,2.2283,2.2267,2.2274,2.2269,2.2337,2.2344,2.2367,2.2484,2.2488,2.2384,2.2388,2.2391,2.2393,0,0,0,0,0,0,0,2.2132,2.2146,2.229,2.2245,2.2244,2.2229,2.2237,2.2314,2.2322,2.2268,2.2264,2.2274,2.2336,2.2361,2.2369,2.2489,2.2384,2.239,2.2394,2.2397,2.2705,2.2709,0,0,0,0,0,0,2.2128,2.2141,2.2288,2.2293,2.218,2.2236,2.2245,2.2283,2.2321,2.2323,2.2277,2.2271,2.2352,2.2361,2.2371,2.251,2.2391,2.2397,2.2401,2.2701,2.2706,2.271,0,0,0,0,0,0,2.2124,2.2141,2.2285,2.2216,2.2233,2.2244,2.2287,2.2286,2.2311,2.2328,2.2329,2.2301,2.2349,2.2362,2.2454,2.2512,2.24,2.2406,2.2696,2.2702,2.2708,2.279,0,0,0,0,0,0,2.2118,2.214,2.2186,2.2218,2.2237,2.2366,2.229,2.229,2.2323,2.2316,2.2351,2.2353,2.2347,2.2444,2.246,2.252,2.2412,2.269,2.2699,2.2706,2.2782,2.2799,2.2812,0,0,0,0,0,2.2111,2.2206,2.2188,2.2206,2.2294,2.237,2.2381,2.2372,2.2328,2.2373,2.2384,2.2352,2.2504,2.2454,2.2472,2.2534,2.2687,2.2696,2.2705,2.2776,2.2795,2.2812,0,0,0,0,0,0,2.218,2.221,2.219,2.2298,2.2332,2.236,2.2416,2.2393,2.244,2.2431,2.2417,2.2426,2.2522,2.2537,2.2481,2.2649,2.2588,2.2602,2.2635,2.2654,2.2669,2.2663,2.2417,0,0,0,0,0,2.2208,2.2267,2.229,2.2383,2.2401,2.2406,2.2439,2.2429,2.2463,2.2477,2.2494,2.2529,2.2583,2.262,2.2672,2.2785,2.2791,2.2837,2.2852,2.2864,2.2875,2.2935,2.2955,2.2741,2.2741,2.2741,0,0,2.2265,2.2289,2.2327,2.2397,2.2422,2.2483,2.2418,2.2486,2.2531,2.2487,2.2574,2.2588,2.2626,2.2728,2.2774,2.2744,2.2936,2.2876,2.2886,2.289,2.2946,2.2966,2.2984,2.2747,2.2746,2.2745,0,0,2.2401,2.2426,2.2505,2.2532,2.257,2.2573,2.2593,2.2624,2.2632,2.2719,2.2687,2.2741,2.2836,2.2864,2.289,2.3037,2.3009,2.3054,2.3132,2.319,2.3207,2.3222,2.3273,2.3291,2.3066,2.3066,2.3066,0,2.2468,2.2559,2.2549,2.2619,2.265,2.2614,2.2693,2.2719,2.2773,2.2795,2.2761,2.2879,2.2902,2.301,2.3045,2.3069,2.3089,2.3049,2.3206,2.3221,2.3234,2.3282,2.3302,2.3071,2.3071,2.307,2.307,0,2.2638,2.2702,2.2761,2.2814,2.2852,2.2927,2.2927,2.2967,2.2954,2.296,2.3049,2.3075,2.3131,2.3156,2.3145,2.3262,2.3242,2.3208,2.3145,2.326,2.3305,2.3323,2.3078,2.3077,2.3075,2.3074,0,0,2.2818,2.2864,2.2886,2.2909,2.295,2.2998,2.3071,2.3126,2.316,2.3198,2.3258,2.334,2.3308,2.3338,2.3329,2.338,2.3493,2.3339,2.3339,2.3365,2.3622,2.3647,2.3668,2.3475,2.3479,2.3482,2.3619,0,2.2954,2.3081,2.3074,2.3192,2.3251,2.3217,2.328,2.3312,2.332,2.337,2.3379,2.3436,2.3391,2.3408,2.3458,2.3469,2.3544,2.3459,2.3529,2.3532,2.3519,2.3692,2.3718,2.3846,2.3636,2.3639,2.3642,0,2.313,2.3174,2.3299,2.333,2.3354,2.3411,2.346,2.3509,2.3544,2.3546,2.358,2.3562,2.3635,2.3573,2.3672,2.3615,2.3643,2.3653,2.3658,2.3662,2.3592,2.37,2.3887,2.3905,2.3669,2.3667,2.3665,0,2.3246,2.3337,2.3423,2.3444,2.3483,2.3524,2.3542,2.3573,2.3606,2.3649,2.367,2.3722,2.3749,2.3789,2.3786,2.3741,2.3887,2.3824,2.3889,2.3889,2.392,2.3917,2.4112,2.3942,2.3942,2.3941,2.3941,0,2.3398,2.3474,2.3476,2.3528,2.3613,2.3605,2.3689,2.3703,2.3731,2.3785,2.376,2.3811,2.3804,2.3856,2.3854,2.3936,2.3949,2.3952,2.395,2.3953,2.3952,2.397,2.396,2.3946,2.3945,2.3944,2.3943,0,2.3541,2.3545,2.3636,2.3666,2.3675,2.3736,2.3761,2.381,2.3817,2.3886,2.3901,2.3911,2.397,2.3972,2.404,2.4038,2.4138,2.4127,2.4126,2.4123,2.4187,2.418,2.4398,2.4426,2.424,2.4241,2.4243,0,2.3636,2.3694,2.373,2.3765,2.3785,2.3842,2.3875,2.387,2.3906,2.395,2.3994,2.4051,2.4096,2.4192,2.4205,2.4257,2.4246,2.4319,2.4253,2.4254,2.4244,2.424,2.4245,2.4331,2.4333,2.4334,2.4336,0,2.3804,2.3803,2.3853,2.3904,2.3945,2.3985,2.4021,2.4051,2.4049,2.4091,2.4151,2.4187,2.4256,2.4312,2.4363,2.4381,2.4358,2.4357,2.4374,2.4376,2.4373,2.4373,2.4158,2.4351,2.435,2.4348,2.4348,2.4347,2.3925,2.3974,2.4007,2.4064,2.4091,2.4126,2.4173,2.4186,2.4236,2.4292,2.4286,2.4353,2.4386,2.4451,2.4473,2.4525,2.4499,2.4525,2.4531,2.4537,2.4543,2.4366,2.4534,2.4534,2.4534,2.4533,2.4533,0,2.4089,2.4109,2.4161,2.4213,2.4258,2.4233,2.4273,2.4311,2.437,2.4403,2.4448,2.4517,2.4572,2.459,2.4642,2.468,2.4671,2.4694,2.469,2.4694,2.4564,2.4543,2.4701,2.4701,2.4701,2.4701,2.4701,2.4701,2.418,2.4263,2.4266,2.4362,2.4381,2.4446,2.4471,2.4502,2.4528,2.4607,2.4652,2.4664,2.469,2.4745,2.4794,2.4798,2.4817,2.4844,2.4844,2.4721,2.4704,2.4688,2.4667,2.4849,2.485,2.497,2.4971,2.4972]},{"header":{"parameterUnit":"m.s-1","parameterCategory":1,"la1":30.2991,"la2":30.254,"lo1":-89.0895,"lo2":-89.0444,"dy":0.0017,"dx":0.0017,"nx":28,"ny":28,"refTime":"2023-08-27T21:00:00:Z","depth":0,"parameterNumber":3,"parameterNumberName":"V-component_of_WINDS"},"data":[0,0,0,0,0,0,0,0,0,0,0,0,0,0,0,0,0,0,0,0,0,0,0,0,0,0,0,0,0,0,0,0,0,0,0,0,0,0,0,0,0,0,0,0,0,0,0,0,0,0,0,0,0,0,0,0,0,0,0.8319,0.832,0,0.8445,0.8446,0.8448,0.8463,0.8461,0.846,0.8459,0.8592,0.8597,0.8601,0,0,0,0,0,0,0,0,0,0,0,0,0,0.8095,0.8099,0.8319,0.8321,0.8322,0.8444,0.8446,0.8448,0.8463,0.8461,0.846,0.8458,0.8591,0.8596,0.8602,0,0,0,0,0,0,0,0,0,0,0,0,0,0.8204,0.81,0.8319,0.8344,0.8348,0.8444,0.8446,0.8448,0.8463,0.8461,0.8459,0.8458,0.8589,0.8596,0.8603,0.8684,0,0,0.8624,0.8627,0,0,0,0,0,0,0,0,0.8198,0.8212,0.8339,0.8343,0.8347,0.8436,0.8416,0.8527,0.8464,0.842,0.8459,0.8457,0.8542,0.8553,0.8581,0.869,0.8696,0.8625,0.8629,0.8632,0.8634,0,0,0,0,0,0,0,0.819,0.8207,0.8369,0.8341,0.8346,0.835,0.8364,0.8437,0.849,0.8423,0.8425,0.8439,0.8544,0.8574,0.8584,0.8698,0.8625,0.8631,0.8635,0.8638,0.8878,0.8881,0,0,0,0,0,0,0.8177,0.82,0.8365,0.8373,0.8266,0.8356,0.8371,0.8409,0.8489,0.8499,0.844,0.8439,0.8563,0.8576,0.8589,0.8688,0.8632,0.8639,0.8643,0.8876,0.8879,0.8881,0,0,0,0,0,0,0.8172,0.8192,0.836,0.8287,0.8309,0.8362,0.8405,0.8413,0.8443,0.8502,0.8512,0.8461,0.8562,0.8579,0.8659,0.8693,0.8642,0.8648,0.8874,0.8877,0.888,0.8888,0,0,0,0,0,0,0.8166,0.819,0.8221,0.8287,0.8312,0.8428,0.8407,0.8417,0.8454,0.8454,0.8524,0.8534,0.8562,0.8649,0.8666,0.8702,0.8654,0.8871,0.8875,0.8879,0.8885,0.8891,0.8896,0,0,0,0,0,0.8158,0.8219,0.8222,0.8242,0.8352,0.8429,0.8444,0.8473,0.8457,0.8489,0.8527,0.8532,0.8686,0.8657,0.8677,0.8715,0.8869,0.8874,0.8879,0.8883,0.889,0.8896,0,0,0,0,0,0,0.8157,0.8229,0.8233,0.8317,0.8367,0.8432,0.8473,0.848,0.8537,0.8534,0.8569,0.8585,0.8664,0.8698,0.8664,0.8797,0.8776,0.8785,0.8772,0.878,0.8785,0.8776,0.866,0,0,0,0,0,0.8167,0.8222,0.8282,0.8351,0.8375,0.842,0.8455,0.8472,0.8526,0.8548,0.8592,0.8645,0.8705,0.8744,0.8803,0.889,0.8905,0.8926,0.8931,0.8935,0.8943,0.8991,0.9001,0.8897,0.8897,0.8897,0,0,0.8187,0.8233,0.8267,0.8352,0.8393,0.8451,0.8438,0.85,0.8543,0.8558,0.8636,0.867,0.8731,0.8815,0.8854,0.8845,0.8975,0.8942,0.8945,0.895,0.8997,0.9007,0.9015,0.89,0.89,0.8899,0,0,0.8255,0.8295,0.8356,0.8396,0.8457,0.8485,0.85,0.8563,0.8586,0.8664,0.8676,0.8729,0.8832,0.8875,0.8911,0.8991,0.8999,0.901,0.904,0.9086,0.9094,0.9101,0.913,0.914,0.9017,0.9017,0.9017,0,0.8273,0.8359,0.8387,0.8448,0.8485,0.8498,0.8561,0.8599,0.8677,0.8703,0.8691,0.882,0.8863,0.8956,0.8975,0.9004,0.9022,0.9003,0.909,0.9098,0.9105,0.9133,0.9144,0.9018,0.9018,0.9018,0.9018,0,0.8379,0.8439,0.8481,0.8553,0.8595,0.8657,0.8694,0.8733,0.8747,0.8777,0.8856,0.8907,0.8976,0.9,0.9015,0.9095,0.9088,0.9083,0.9063,0.9116,0.9143,0.9154,0.902,0.9019,0.9019,0.9019,0,0,0.8451,0.8536,0.8551,0.8583,0.865,0.8698,0.876,0.8825,0.8858,0.8911,0.8964,0.905,0.9045,0.9085,0.9105,0.9145,0.9206,0.9136,0.9138,0.9147,0.9297,0.9301,0.9313,0.921,0.9212,0.9214,0.9292,0,0.8526,0.8635,0.8661,0.8755,0.8811,0.8823,0.8877,0.8924,0.8954,0.9006,0.9039,0.9099,0.9088,0.9112,0.9153,0.919,0.9237,0.9184,0.9261,0.9264,0.9246,0.9327,0.9331,0.9403,0.9303,0.9305,0.9306,0,0.8629,0.8681,0.878,0.8838,0.8863,0.8911,0.8972,0.9021,0.9075,0.9094,0.9137,0.9152,0.9218,0.9193,0.9285,0.9248,0.9281,0.9304,0.9308,0.9317,0.9289,0.9339,0.9426,0.9437,0.9323,0.9322,0.932,0,0.8671,0.8767,0.8838,0.8866,0.8935,0.8969,0.9,0.9051,0.9089,0.9143,0.9167,0.9229,0.9263,0.931,0.9342,0.9321,0.943,0.9409,0.9448,0.9448,0.9472,0.947,0.9566,0.9492,0.9492,0.9491,0.9491,0,0.8753,0.8813,0.8858,0.8902,0.897,0.8998,0.9065,0.9096,0.9142,0.9193,0.9208,0.9255,0.9293,0.9347,0.9372,0.9443,0.9459,0.9476,0.9482,0.9475,0.9473,0.9498,0.9494,0.9494,0.9494,0.9493,0.9493,0,0.8813,0.8845,0.8923,0.8982,0.8998,0.9045,0.9096,0.914,0.9168,0.9232,0.9249,0.9295,0.9358,0.9393,0.9474,0.949,0.957,0.9574,0.9551,0.9554,0.9592,0.9588,0.9708,0.9726,0.9639,0.9639,0.964,0,0.8863,0.8909,0.8971,0.9005,0.9036,0.9091,0.9128,0.9158,0.9197,0.926,0.9296,0.936,0.9412,0.9513,0.9554,0.9615,0.962,0.9658,0.963,0.9621,0.9621,0.9618,0.9623,0.9664,0.9664,0.9665,0.9665,0,0.8948,0.8961,0.9013,0.9071,0.9114,0.9162,0.9209,0.9236,0.9274,0.9317,0.938,0.942,0.9501,0.9564,0.9628,0.9661,0.967,0.9674,0.9686,0.968,0.9665,0.9674,0.9565,0.9671,0.9671,0.967,0.967,0.967,0.9005,0.9046,0.9096,0.9153,0.9191,0.9234,0.9277,0.931,0.9363,0.943,0.9444,0.9511,0.9563,0.965,0.9684,0.9738,0.9731,0.9749,0.9754,0.9758,0.9759,0.9655,0.975,0.975,0.9749,0.9749,0.9749,0,0.9091,0.9123,0.9176,0.924,0.9285,0.9286,0.9338,0.9376,0.9434,0.9481,0.9532,0.9604,0.9665,0.971,0.9772,0.9806,0.9812,0.9822,0.982,0.9828,0.9762,0.9745,0.9816,0.9816,0.9816,0.9816,0.9816,0.9816,0.9142,0.9211,0.923,0.9318,0.935,0.9414,0.9443,0.9483,0.9521,0.96,0.965,0.9678,0.9724,0.979,0.9846,0.9857,0.988,0.9889,0.9902,0.984,0.9832,0.9826,0.981,0.9894,0.9894,0.9963,0.9964,0.9964]}]]